Date,TemperatureHighF,TemperatureAvgF,TemperatureLowF,DewpointHighF,DewpointAvgF,DewpointLowF,HumidityHigh,HumidityAvg,HumidityLow,PressureMaxIn,PressureMinIn,WindSpeedMaxMPH,WindSpeedAvgMPH,GustSpeedMaxMPH,PrecipitationSumIn
2014-1-1,79,62,50,57,49,35,99,69,22,30.15,30.04,4,0,9,0.00
2014-1-2,86,65,51,49,34,20,84,37,12,30.11,29.99,5,0,11,0.00
2014-1-3,58,52,51,53,51,40,99,96,53,30.02,29.97,2,0,4,0.00
2014-1-4,80,61,49,57,51,41,99,75,31,30.04,29.94,3,1,7,0.00
2014-1-5,88,69,49,53,35,11,98,35,12,30.15,30.06,103,1,103,24.20
2014-1-6,92,70,54,38,20,6,18,15,14,30.22,30.11,8,1,15,0.01
2014-1-7,61,56,51,47,27,5,64,34,14,30.12,30.04,3,0,6,33.60
2014-1-8,73,60,50,56,50,27,99,75,29,30.13,30.02,4,0,6,0.00
2014-1-9,125,57,48,55,52,47,99,85,54,30.12,29.96,27,1,27,0.00
2014-1-10,82,65,52,63,53,45,99,72,28,30.14,30.03,4,0,6,3.03
2014-1-11,81,61,49,58,51,33,99,75,23,30.19,30.04,5,1,11,33.60
2014-1-12,85,66,-12,55,37,13,99,44,11,30.19,30.03,8,2,22,0.00
2014-1-13,91,76,67,35,23,16,14,14,14,30.32,30.19,10,3,19,0.00
2014-1-14,91,82,66,35,28,15,17,14,11,30.34,30.19,21,8,32,0.33
2014-1-15,94,82,74,33,25,16,14,12,12,30.25,30.11,11,2,22,0.00
2014-1-16,93,84,78,32,26,21,12,12,12,30.15,30.06,14,6,24,0.00
2014-1-17,98,73,60,35,-1,-100,26,11,10,30.08,30.06,8,2,13,33.84
2014-1-18,96,69,51,54,32,7,87,33,10,30.12,30.01,4,1,9,0.00
2014-1-19,93,64,49,42,25,0,66,27,11,30.12,30.03,3,0,4,33.84
2014-1-20,87,67,50,55,37,15,98,42,11,30.16,30.07,5,1,12,0.00
2014-1-21,80,67,55,55,34,6,74,35,10,30.16,30.05,6,1,11,0.00
2014-1-22,86,66,54,57,46,12,99,56,15,30.03,29.89,4,1,6,0.00
2014-1-23,69,59,52,56,54,48,99,85,55,30.09,29.90,5,1,9,0.00
2014-1-24,73,63,56,58,46,16,96,60,12,30.21,30.11,6,1,11,0.00
2014-1-25,80,60,53,65,43,22,77,56,13,30.19,30.12,4,1,10,0.37
2014-1-26,63,59,54,58,54,42,90,82,65,30.14,30.02,5,1,10,0.00
2014-1-27,80,61,50,57,51,41,99,75,26,30.12,30.02,4,0,11,0.00
2014-1-28,77,62,49,57,53,47,99,77,43,30.15,30.03,3,0,6,0.37
2014-1-29,77,60,50,61,56,50,99,89,45,30.09,29.94,4,1,7,0.00
2014-1-30,64,58,55,58,56,54,99,94,74,29.98,29.88,4,1,8,0.02
2014-1-31,67,57,49,51,40,13,97,57,22,29.98,29.88,5,1,14,0.00